Nellis AFB, NV

9:51 PM PDT on March 26, 2017 (GMT -0700)
Nellis Air Force Base

Weather History for KLSV - December, 2013

Change the Weather History Date:

Friday, December 27, 2013

  Actual Average Record
Temperature  
Mean Temperature 48 °F -  
Max Temperature 63 °F 55 °F 64 °F (1999)
Min Temperature 32 °F 33 °F 23 °F (1997)
Degree Days  
Heating Degree Days 18    
Moisture  
Dew Point 18 °F    
Average Humidity 41    
Maximum Humidity 55    
Minimum Humidity 15    
Precipitation  
Precipitation 0.00 in - - ()
Sea Level Pressure  
Sea Level Pressure 30.26 in    
Wind  
Wind Speed 2 mph (NNE)    
Max Wind Speed 5 mph    
Max Gust Speed -    
Visibility 9 miles    
Events      
Averages and records for this station are not official NWS values.
T = Trace of Precipitation, MM = Missing Value Source: NWS Daily Summary

Daily Weather History Graph

Daily Weather History Graph

Search for Another Location

Airport or City:

Trip Planner

Search our weather history database for the weather conditions in past years. The results will help you decide how hot, cold, wet, or windy it might be!

Date:

Astronomy

Dec. 27, 2013 Rise Set
Actual Time 6:50 AM PST 4:32 PM PST
Civil Twilight 6:21 AM PST 5:01 PM PST
Nautical Twilight 5:49 AM PST 5:33 PM PST
Astronomical Twilight 5:17 AM PST 6:04 PM PST
Moon 1:32 AM PST 12:41 PM PST
Length of Visible Light 10h 39m
Length of Day
9h 42m
Waning Crescent, 27% of the Moon is Illuminated
Dec 27
Waning Crescent
Jan 1
New
Jan 7
First Quarter
Jan 15
Full
Jan 23
Last Quarter

Hourly Weather History & Observations

Time (PST) Temp. Windchill Dew Point Humidity Pressure Visibility Wind Dir Wind Speed Gust Speed Precip Events Conditions
12:23 AM 39.2 °F - 19.4 °F 45% 30.31 in 8.0 mi Calm Calm - N/A   Clear
12:43 AM 37.4 °F - 19.4 °F 48% 30.30 in 10.0 mi North 2.3 mph - N/A   Clear
12:53 AM 35.6 °F 32.8 °F 19.4 °F 52% 30.30 in 9.0 mi NE 3.5 mph - N/A   Clear
12:58 AM 35.8 °F 33.0 °F 19.0 °F 51% 30.30 in 8.0 mi NE 3.5 mph - N/A   Clear
1:33 AM 37.4 °F - 17.6 °F 45% 30.30 in 6.0 mi NNW 2.3 mph - N/A   Haze
1:53 AM 37.4 °F - 17.6 °F 45% 30.30 in 7.0 mi Calm Calm - N/A   Clear
1:58 AM 37.4 °F - 18.5 °F 46% 30.30 in 7.0 mi NNW 1.2 mph - N/A   Clear
2:58 AM 34.5 °F - 18.7 °F 52% 30.31 in 8.0 mi ENE 2.3 mph - N/A   Clear
3:38 AM 33.8 °F 29.6 °F 17.6 °F 52% 30.30 in 10.0 mi NE 4.6 mph - N/A   Clear
3:48 AM 33.8 °F - 17.6 °F 52% 30.30 in 9.0 mi Variable 2.3 mph - N/A   Clear
3:58 AM 35.4 °F - 16.2 °F 46% 30.30 in 7.0 mi Calm Calm - N/A   Clear
4:33 AM 35.6 °F 31.7 °F 17.6 °F 48% 30.29 in 7.0 mi NW 4.6 mph - N/A   Clear
4:58 AM 35.8 °F - 17.2 °F 47% 30.31 in 6.0 mi Calm Calm - N/A   Haze
5:13 AM 32.0 °F - 17.6 °F 55% 30.30 in 8.0 mi Calm Calm - N/A   Clear
5:38 AM 32.0 °F - 17.6 °F 55% 30.31 in 8.0 mi Calm Calm - N/A   Clear
5:58 AM 32.9 °F - 18.0 °F 54% 30.33 in 9.0 mi Calm Calm - N/A   Clear
6:58 AM 33.4 °F 29.1 °F 18.5 °F 54% 30.35 in 5.0 mi East 4.6 mph - N/A   Haze
7:58 AM 36.5 °F - 18.5 °F 48% 30.36 in 5.0 mi North 1.2 mph - N/A   Haze
8:58 AM 41.5 °F - 20.8 °F 44% 30.37 in 6.0 mi SE 2.3 mph - N/A   Haze
9:58 AM 47.3 °F - 19.4 °F 33% 30.35 in 10.0 mi Calm Calm - N/A   Clear
10:58 AM 51.4 °F - 18.1 °F 27% 30.32 in 10.0 mi Calm Calm - N/A   Clear
11:58 AM 56.3 °F - 17.2 °F 22% 30.26 in 10.0 mi Calm Calm - N/A   Clear
12:58 PM 59.9 °F - 16.5 °F 18% 30.23 in 10.0 mi South 3.5 mph - N/A   Clear
1:58 PM 62.4 °F - 14.5 °F 16% 30.20 in 10.0 mi South 1.2 mph - N/A   Clear
2:58 PM 63.9 °F - 14.9 °F 15% 30.18 in 10.0 mi Calm Calm - N/A   Clear
3:58 PM 62.4 °F - 14.4 °F 15% 30.17 in 10.0 mi Calm Calm - N/A   Clear
4:58 PM 58.5 °F - 16.7 °F 20% 30.16 in 10.0 mi Calm Calm - N/A   Clear
5:58 PM 51.1 °F - 20.1 °F 30% 30.17 in 10.0 mi North 4.6 mph - N/A   Clear
6:58 PM 48.9 °F - 21.2 °F 34% 30.18 in 10.0 mi North 2.3 mph - N/A   Clear
7:58 PM 45.9 °F - 21.0 °F 37% 30.17 in 10.0 mi Calm Calm - N/A   Clear
8:58 PM 43.0 °F - 23.2 °F 46% 30.17 in 10.0 mi NNE 1.2 mph - N/A   Clear
9:58 PM 43.9 °F 42.3 °F 20.1 °F 39% 30.17 in 10.0 mi NNE 3.5 mph - N/A   Clear
10:58 PM 42.4 °F - 21.9 °F 44% 30.15 in 10.0 mi NNE 1.2 mph - N/A   Clear
11:58 PM 41.0 °F 39.0 °F 21.7 °F 46% 30.13 in 10.0 mi NE 3.5 mph - N/A   Clear